AAL660 KDFW-KTYS

Flight info

Callsign AAL660
Flight time 1h 36m
Altitude 39000
Route TRYTN4 LOOSE MEM TAZZA
Aircraft B38M/M-SDE1FGHILORVWXY/HB1

Departure

Time 2026-05-06 16:24
Airport Dallas Fort Worth International Airport (KDFW)

Arrival

Time 2026-05-06 18:01
Airport McGhee Tyson Airport (KTYS)
Time Latitude Longitude Altitude Speed Heading
2026-05-06 15:49 32.89711 -97.04571 594 ft 0 kts 90°
2026-05-06 16:10 32.89711 -97.04573 594 ft 1 kts 90°
2026-05-06 16:10 32.89712 -97.04592 594 ft 3 kts 96°
2026-05-06 16:11 32.89714 -97.04616 595 ft 3 kts 96°
2026-05-06 16:11 32.89716 -97.04635 595 ft 3 kts 85°
2026-05-06 16:11 32.89711 -97.04656 595 ft 3 kts 47°
2026-05-06 16:11 32.89696 -97.04668 595 ft 3 kts 14°
2026-05-06 16:12 32.89679 -97.04671 595 ft 1 kts
2026-05-06 16:12 32.89674 -97.04671 595 ft 0 kts
2026-05-06 16:15 32.89725 -97.04723 596 ft 10 kts 300°
2026-05-06 16:16 32.89754 -97.04794 597 ft 10 kts 284°
2026-05-06 16:16 32.89746 -97.04868 599 ft 9 kts 226°
2026-05-06 16:16 32.89684 -97.04884 599 ft 9 kts 182°
2026-05-06 16:16 32.89614 -97.04887 598 ft 11 kts 180°
2026-05-06 16:17 32.89558 -97.04888 597 ft 12 kts 181°
2026-05-06 16:17 32.89475 -97.04889 597 ft 12 kts 179°
2026-05-06 16:17 32.89394 -97.04892 596 ft 12 kts 179°
2026-05-06 16:17 32.89313 -97.04890 594 ft 12 kts 181°
2026-05-06 16:18 32.89220 -97.04891 592 ft 14 kts 180°
2026-05-06 16:18 32.89122 -97.04893 590 ft 14 kts 180°
2026-05-06 16:18 32.89026 -97.04893 590 ft 13 kts 181°
2026-05-06 16:18 32.88934 -97.04893 602 ft 13 kts 180°
2026-05-06 16:19 32.88837 -97.04894 587 ft 14 kts 180°
2026-05-06 16:19 32.88738 -97.04895 587 ft 14 kts 180°
2026-05-06 16:19 32.88643 -97.04894 588 ft 13 kts 179°
2026-05-06 16:19 32.88552 -97.04892 589 ft 13 kts 180°
2026-05-06 16:20 32.88463 -97.04896 588 ft 13 kts 181°
2026-05-06 16:20 32.88376 -97.04896 587 ft 13 kts 179°
2026-05-06 16:20 32.88291 -97.04898 588 ft 12 kts 181°
2026-05-06 16:20 32.88207 -97.04896 589 ft 12 kts 178°
2026-05-06 16:21 32.88125 -97.04897 589 ft 12 kts 180°
2026-05-06 16:21 32.88040 -97.04897 587 ft 13 kts 180°
2026-05-06 16:21 32.87945 -97.04897 585 ft 14 kts 181°
2026-05-06 16:21 32.87905 -97.04930 584 ft 1 kts 256°
2026-05-06 16:22 32.87909 -97.04964 584 ft 0 kts 276°
2026-05-06 16:23 32.87912 -97.05002 585 ft 8 kts 275°
2026-05-06 16:24 32.87937 -97.05079 586 ft 12 kts 330°
2026-05-06 16:24 32.88313 -97.05096 590 ft 101 kts 360°
2026-05-06 16:24 32.89298 -97.05087 660 ft 175 kts
2026-05-06 16:24 32.90621 -97.05122 1311 ft 197 kts 359°
2026-05-06 16:25 32.92030 -97.05170 1988 ft 204 kts 357°
2026-05-06 16:25 32.93489 -97.05084 2599 ft 212 kts 10°
2026-05-06 16:25 32.94953 -97.04736 3406 ft 214 kts
2026-05-06 16:25 32.96524 -97.04517 3817 ft 245 kts
2026-05-06 16:26 32.98323 -97.04203 4326 ft 272 kts
2026-05-06 16:26 33.00221 -97.03779 5164 ft 282 kts
2026-05-06 16:26 33.02162 -97.03405 6165 ft 284 kts
2026-05-06 16:26 33.04103 -97.03076 7095 ft 287 kts
2026-05-06 16:27 33.06025 -97.02292 7942 ft 301 kts 29°
2026-05-06 16:27 33.07504 -97.00497 8799 ft 312 kts 59°
2026-05-06 16:27 33.08142 -96.98006 9611 ft 319 kts 84°
2026-05-06 16:27 33.08320 -96.95338 10303 ft 328 kts 88°
2026-05-06 16:28 33.08280 -96.92540 10584 ft 348 kts 101°
2026-05-06 16:28 33.07819 -96.89665 11149 ft 358 kts 104°
2026-05-06 16:28 33.07359 -96.86728 11872 ft 362 kts 103°
2026-05-06 16:28 33.06923 -96.83753 12608 ft 367 kts 104°
2026-05-06 16:29 33.06259 -96.80819 13280 ft 367 kts 115°
2026-05-06 16:29 33.05304 -96.77987 13949 ft 370 kts 118°
2026-05-06 16:29 33.04278 -96.75143 14536 ft 375 kts 119°
2026-05-06 16:29 33.03235 -96.72272 15110 ft 380 kts 119°
2026-05-06 16:30 33.02192 -96.69357 15672 ft 385 kts 119°
2026-05-06 16:30 33.01501 -96.67400 16044 ft 388 kts 119°
2026-05-06 16:30 33.00103 -96.63393 16815 ft 396 kts 118°
2026-05-06 16:30 32.99051 -96.60350 17499 ft 399 kts 118°
2026-05-06 16:31 32.98001 -96.57306 18160 ft 404 kts 119°
2026-05-06 16:31 32.96929 -96.54196 18724 ft 409 kts 119°
2026-05-06 16:31 32.95840 -96.51042 19233 ft 415 kts 119°
2026-05-06 16:31 32.94734 -96.47839 19743 ft 421 kts 118°
2026-05-06 16:32 32.93614 -96.44598 20253 ft 427 kts 118°
2026-05-06 16:32 32.92477 -96.41312 20772 ft 432 kts 118°
2026-05-06 16:32 32.91323 -96.37987 21275 ft 438 kts 118°
2026-05-06 16:32 32.90497 -96.34444 21719 ft 455 kts 99°
2026-05-06 16:33 32.90596 -96.30658 22222 ft 463 kts 77°
2026-05-06 16:33 32.91576 -96.27004 22746 ft 465 kts 66°
2026-05-06 16:33 32.92771 -96.23407 23228 ft 470 kts 65°
2026-05-06 16:34 32.95264 -96.16123 24098 ft 479 kts 65°
2026-05-06 16:34 32.96500 -96.12422 24554 ft 482 kts 65°
2026-05-06 16:34 32.97721 -96.08695 25027 ft 485 kts 66°
2026-05-06 16:34 32.98938 -96.04932 25462 ft 487 kts 66°
2026-05-06 16:35 33.00154 -96.01153 25890 ft 491 kts 66°
2026-05-06 16:35 33.01376 -95.97345 26303 ft 494 kts 66°
2026-05-06 16:35 33.02606 -95.93512 26705 ft 497 kts 66°
2026-05-06 16:35 33.03845 -95.89654 27097 ft 500 kts 66°
2026-05-06 16:36 33.05089 -95.85776 27490 ft 502 kts 66°
2026-05-06 16:36 33.06342 -95.81871 27886 ft 505 kts 66°
2026-05-06 16:36 33.07602 -95.77950 28273 ft 508 kts 66°
2026-05-06 16:36 33.08871 -95.73999 28652 ft 511 kts 66°
2026-05-06 16:37 33.10145 -95.70027 29031 ft 514 kts 66°
2026-05-06 16:37 33.11427 -95.66027 29395 ft 517 kts 66°
2026-05-06 16:37 33.12711 -95.62013 29759 ft 520 kts 66°
2026-05-06 16:37 33.14001 -95.57972 30118 ft 523 kts 66°
2026-05-06 16:38 33.15296 -95.53909 30410 ft 525 kts 66°
2026-05-06 16:38 33.16596 -95.49826 30699 ft 528 kts 66°
2026-05-06 16:38 33.17902 -95.45719 30967 ft 530 kts 66°
2026-05-06 16:38 33.19211 -95.41595 31223 ft 533 kts 66°
2026-05-06 16:39 33.20509 -95.37503 31471 ft 535 kts 66°
2026-05-06 16:39 33.21828 -95.33338 31703 ft 538 kts 66°
2026-05-06 16:39 33.23152 -95.29152 31946 ft 540 kts 66°
2026-05-06 16:39 33.24483 -95.24938 32190 ft 543 kts 66°
2026-05-06 16:40 33.25816 -95.20712 32445 ft 545 kts 66°
2026-05-06 16:40 33.27154 -95.16464 32690 ft 547 kts 65°
2026-05-06 16:40 33.28497 -95.12192 32924 ft 550 kts 65°
2026-05-06 16:40 33.29844 -95.07904 33145 ft 552 kts 65°
2026-05-06 16:41 33.31195 -95.03598 33382 ft 554 kts 65°
2026-05-06 16:41 33.32547 -94.99278 33678 ft 554 kts 65°
2026-05-06 16:41 33.33895 -94.94966 34001 ft 553 kts 65°
2026-05-06 16:41 33.35241 -94.90654 34279 ft 553 kts 65°
2026-05-06 16:42 33.36586 -94.86340 34550 ft 552 kts 65°
2026-05-06 16:42 33.37926 -94.82037 34797 ft 552 kts 65°
2026-05-06 16:42 33.39265 -94.77730 35037 ft 553 kts 65°
2026-05-06 16:42 33.40605 -94.73415 35295 ft 552 kts 65°
2026-05-06 16:43 33.41940 -94.69110 35574 ft 551 kts 65°
2026-05-06 16:43 33.43273 -94.64806 35832 ft 551 kts 65°
2026-05-06 16:43 33.44604 -94.60502 36067 ft 551 kts 65°
2026-05-06 16:43 33.45933 -94.56200 36299 ft 551 kts 65°
2026-05-06 16:44 33.47242 -94.51953 36566 ft 550 kts 65°
2026-05-06 16:44 33.48565 -94.47656 36819 ft 550 kts 65°
2026-05-06 16:44 33.49886 -94.43359 37044 ft 550 kts 65°
2026-05-06 16:44 33.51206 -94.39060 37261 ft 550 kts 65°
2026-05-06 16:45 33.52523 -94.34764 37520 ft 549 kts 64°
2026-05-06 16:45 33.53837 -94.30472 37760 ft 548 kts 64°
2026-05-06 16:45 33.55150 -94.26180 37974 ft 548 kts 64°
2026-05-06 16:45 33.56459 -94.21884 38171 ft 549 kts 64°
2026-05-06 16:46 33.57765 -94.17583 38402 ft 548 kts 64°
2026-05-06 16:46 33.59064 -94.13290 38620 ft 547 kts 64°
2026-05-06 16:46 33.60360 -94.08996 38789 ft 548 kts 64°
2026-05-06 16:46 33.61651 -94.04707 38950 ft 545 kts 65°
2026-05-06 16:47 33.62931 -94.00434 39012 ft 545 kts 64°
2026-05-06 16:47 33.65484 -93.91853 39020 ft 547 kts 65°
2026-05-06 16:48 33.68007 -93.83232 39011 ft 548 kts 65°
2026-05-06 16:48 33.70514 -93.74640 39007 ft 549 kts 65°
2026-05-06 16:49 33.73036 -93.65993 39005 ft 549 kts 65°
2026-05-06 16:49 33.75557 -93.57335 39003 ft 549 kts 65°
2026-05-06 16:50 33.78070 -93.48676 39003 ft 548 kts 65°
2026-05-06 16:50 33.80572 -93.40027 39008 ft 547 kts 65°
2026-05-06 16:51 33.83060 -93.31398 39017 ft 545 kts 64°
2026-05-06 16:51 33.85528 -93.22814 39023 ft 541 kts 64°
2026-05-06 16:52 33.87976 -93.14278 39045 ft 538 kts 64°
2026-05-06 16:52 33.90507 -93.05845 39043 ft 532 kts 59°
2026-05-06 16:53 33.93515 -92.97766 39061 ft 527 kts 56°
2026-05-06 16:53 33.96639 -92.89775 39056 ft 527 kts 57°
2026-05-06 16:54 33.99720 -92.81748 39052 ft 529 kts 57°
2026-05-06 16:54 34.02762 -92.73659 39051 ft 531 kts 57°
2026-05-06 16:55 34.05792 -92.65533 39050 ft 532 kts 57°
2026-05-06 16:55 34.08828 -92.57377 39045 ft 533 kts 57°
2026-05-06 16:56 34.11857 -92.49222 39036 ft 531 kts 57°
2026-05-06 16:56 34.14863 -92.41109 39031 ft 527 kts 57°
2026-05-06 16:57 34.17842 -92.33054 39046 ft 524 kts 57°
2026-05-06 16:57 34.20802 -92.25037 39043 ft 521 kts 57°
2026-05-06 16:58 34.23744 -92.17050 39055 ft 519 kts 57°
2026-05-06 16:58 34.26675 -92.09077 39055 ft 519 kts 57°
2026-05-06 16:59 34.29583 -92.01143 39070 ft 520 kts 57°
2026-05-06 16:59 34.32512 -91.93134 39063 ft 521 kts 57°
2026-05-06 17:00 34.35441 -91.85102 39062 ft 522 kts 57°
2026-05-06 17:00 34.38372 -91.77044 39059 ft 524 kts 57°
2026-05-06 17:01 34.41304 -91.68963 39069 ft 524 kts 57°
2026-05-06 17:01 34.44224 -91.60885 39070 ft 523 kts 57°
2026-05-06 17:02 34.47141 -91.52804 39074 ft 523 kts 57°
2026-05-06 17:02 34.50049 -91.44725 39070 ft 523 kts 57°
2026-05-06 17:03 34.52951 -91.36645 39066 ft 522 kts 57°
2026-05-06 17:03 34.55847 -91.28562 39054 ft 522 kts 57°
2026-05-06 17:04 34.58738 -91.20472 39045 ft 522 kts 57°
2026-05-06 17:04 34.61620 -91.12385 39036 ft 522 kts 57°
2026-05-06 17:05 34.64498 -91.04291 39033 ft 522 kts 58°
2026-05-06 17:05 34.67371 -90.96188 39039 ft 522 kts 58°
2026-05-06 17:06 34.70223 -90.88125 39030 ft 523 kts 58°
2026-05-06 17:06 34.73092 -90.79995 39032 ft 523 kts 58°
2026-05-06 17:07 34.75492 -90.73175 39037 ft 524 kts 58°
2026-05-06 17:07 34.78352 -90.65027 39035 ft 524 kts 58°
2026-05-06 17:08 34.81209 -90.56869 39035 ft 524 kts 58°
2026-05-06 17:08 34.84061 -90.48705 39051 ft 524 kts 58°
2026-05-06 17:09 34.86908 -90.40530 39059 ft 524 kts 58°
2026-05-06 17:09 34.89754 -90.32342 39048 ft 526 kts 58°
2026-05-06 17:10 34.92601 -90.24128 39032 ft 526 kts 58°
2026-05-06 17:10 34.95421 -90.15965 39039 ft 525 kts 58°
2026-05-06 17:11 34.98250 -90.07758 39056 ft 525 kts 58°
2026-05-06 17:11 35.01084 -89.99468 39051 ft 529 kts 61°
2026-05-06 17:12 35.02998 -89.90761 39054 ft 539 kts 72°
2026-05-06 17:12 35.04457 -89.81780 39028 ft 539 kts 73°
2026-05-06 17:13 35.05902 -89.72812 39033 ft 537 kts 72°
2026-05-06 17:13 35.07396 -89.63887 39034 ft 536 kts 72°
2026-05-06 17:14 35.08912 -89.54977 39026 ft 536 kts 72°
2026-05-06 17:14 35.10424 -89.46080 39043 ft 535 kts 72°
2026-05-06 17:15 35.11927 -89.37168 39036 ft 536 kts 72°
2026-05-06 17:15 35.13422 -89.28238 39036 ft 536 kts 72°
2026-05-06 17:16 35.14910 -89.19304 39030 ft 537 kts 72°
2026-05-06 17:16 35.16394 -89.10354 39018 ft 537 kts 72°
2026-05-06 17:17 35.17870 -89.01408 39004 ft 537 kts 72°
2026-05-06 17:17 35.19342 -88.92448 39004 ft 538 kts 72°
2026-05-06 17:18 35.20808 -88.83474 39002 ft 538 kts 72°
2026-05-06 17:18 35.22269 -88.74497 39014 ft 539 kts 72°
2026-05-06 17:19 35.23716 -88.65556 39014 ft 539 kts 73°
2026-05-06 17:19 35.25167 -88.56545 39021 ft 540 kts 73°
2026-05-06 17:20 35.26613 -88.47526 39013 ft 541 kts 73°
2026-05-06 17:20 35.28054 -88.38486 39021 ft 542 kts 73°
2026-05-06 17:21 35.29490 -88.29433 38981 ft 542 kts 73°
2026-05-06 17:21 35.30923 -88.20359 38987 ft 543 kts 73°
2026-05-06 17:22 35.32350 -88.11271 38982 ft 544 kts 73°
2026-05-06 17:22 35.33772 -88.02169 38985 ft 544 kts 73°
2026-05-06 17:23 35.35189 -87.93055 38983 ft 545 kts 73°
2026-05-06 17:23 35.36600 -87.83927 38985 ft 546 kts 73°
2026-05-06 17:24 35.38006 -87.74788 38984 ft 546 kts 74°
2026-05-06 17:24 35.39406 -87.65639 38990 ft 546 kts 74°
2026-05-06 17:25 35.40790 -87.56526 38962 ft 536 kts 74°
2026-05-06 17:25 35.41458 -87.52084 38964 ft 525 kts 73°
2026-05-06 17:25 35.42115 -87.47711 38795 ft 520 kts 73°
2026-05-06 17:25 35.42775 -87.43346 38088 ft 523 kts 74°
2026-05-06 17:26 35.43445 -87.38938 37297 ft 529 kts 74°
2026-05-06 17:26 35.44121 -87.34478 36574 ft 533 kts 75°
2026-05-06 17:26 35.44792 -87.30012 36100 ft 531 kts 75°
2026-05-06 17:26 35.45452 -87.25578 35784 ft 525 kts 75°
2026-05-06 17:27 35.46093 -87.21248 35486 ft 519 kts 76°
2026-05-06 17:27 35.46735 -87.16906 35161 ft 515 kts 76°
2026-05-06 17:27 35.47370 -87.12614 34828 ft 510 kts 76°
2026-05-06 17:27 35.48001 -87.08341 34470 ft 506 kts 76°
2026-05-06 17:28 35.48627 -87.04100 34110 ft 503 kts 77°
2026-05-06 17:28 35.49246 -86.99894 33752 ft 499 kts 77°
2026-05-06 17:28 35.49857 -86.95726 33403 ft 494 kts 77°
2026-05-06 17:28 35.50461 -86.91598 33029 ft 490 kts 77°
2026-05-06 17:29 35.51062 -86.87485 32639 ft 487 kts 77°
2026-05-06 17:29 35.51656 -86.83407 32265 ft 484 kts 77°
2026-05-06 17:29 35.52243 -86.79364 31870 ft 476 kts 78°
2026-05-06 17:29 35.52818 -86.75390 31320 ft 471 kts 78°
2026-05-06 17:30 35.53389 -86.71440 30714 ft 468 kts 78°
2026-05-06 17:30 35.53955 -86.67523 30173 ft 464 kts 78°
2026-05-06 17:30 35.54514 -86.63634 29615 ft 458 kts 78°
2026-05-06 17:30 35.55063 -86.59804 28965 ft 455 kts 79°
2026-05-06 17:31 35.55612 -86.55972 28453 ft 455 kts 79°
2026-05-06 17:31 35.56157 -86.52157 28093 ft 451 kts 79°
2026-05-06 17:31 35.56695 -86.48380 27769 ft 447 kts 78°
2026-05-06 17:31 35.57227 -86.44637 27389 ft 444 kts 78°
2026-05-06 17:32 35.57756 -86.40910 26983 ft 442 kts 78°
2026-05-06 17:32 35.58275 -86.37244 26600 ft 440 kts 78°
2026-05-06 17:32 35.58796 -86.33552 26236 ft 438 kts 78°
2026-05-06 17:32 35.59313 -86.29877 25882 ft 435 kts 78°
2026-05-06 17:33 35.59827 -86.26223 25521 ft 433 kts 78°
2026-05-06 17:33 35.60338 -86.22579 25165 ft 431 kts 78°
2026-05-06 17:33 35.60845 -86.18955 24823 ft 429 kts 78°
2026-05-06 17:33 35.61352 -86.15329 24226 ft 434 kts 79°
2026-05-06 17:34 35.61864 -86.11654 23756 ft 438 kts 79°
2026-05-06 17:34 35.62375 -86.07973 23397 ft 436 kts 79°
2026-05-06 17:34 35.62881 -86.04326 23125 ft 430 kts 79°
2026-05-06 17:34 35.63380 -86.00717 22860 ft 426 kts 79°
2026-05-06 17:35 35.63874 -85.97136 22597 ft 424 kts 79°
2026-05-06 17:35 35.64363 -85.93577 22332 ft 421 kts 79°
2026-05-06 17:35 35.64849 -85.90043 22081 ft 418 kts 79°
2026-05-06 17:36 35.65817 -85.82971 21595 ft 421 kts 79°
2026-05-06 17:36 35.66301 -85.79428 21347 ft 419 kts 79°
2026-05-06 17:36 35.66779 -85.75910 21101 ft 416 kts 79°
2026-05-06 17:36 35.67255 -85.72408 20854 ft 414 kts 79°
2026-05-06 17:37 35.67727 -85.68925 20611 ft 412 kts 79°
2026-05-06 17:37 35.68195 -85.65458 20363 ft 410 kts 79°
2026-05-06 17:37 35.68662 -85.61999 20130 ft 409 kts 79°
2026-05-06 17:37 35.69127 -85.58550 19903 ft 408 kts 79°
2026-05-06 17:38 35.69589 -85.55109 19663 ft 406 kts 79°
2026-05-06 17:38 35.70047 -85.51687 19427 ft 404 kts 79°
2026-05-06 17:38 35.70503 -85.48279 19174 ft 403 kts 79°
2026-05-06 17:38 35.70956 -85.44886 18942 ft 401 kts 79°
2026-05-06 17:39 35.71406 -85.41502 18714 ft 399 kts 79°
2026-05-06 17:39 35.71854 -85.38139 18484 ft 398 kts 79°
2026-05-06 17:39 35.72298 -85.34787 18254 ft 396 kts 79°
2026-05-06 17:39 35.72740 -85.31447 18003 ft 395 kts 79°
2026-05-06 17:40 35.73179 -85.28118 17736 ft 393 kts 79°
2026-05-06 17:40 35.73615 -85.24805 17497 ft 391 kts 79°
2026-05-06 17:40 35.74048 -85.21506 17240 ft 390 kts 80°
2026-05-06 17:40 35.74474 -85.18257 16990 ft 388 kts 79°
2026-05-06 17:41 35.74908 -85.14937 16746 ft 387 kts 80°
2026-05-06 17:41 35.75329 -85.11714 16493 ft 386 kts 80°
2026-05-06 17:41 35.75752 -85.08462 16249 ft 385 kts 80°
2026-05-06 17:41 35.76174 -85.05214 15999 ft 383 kts 79°
2026-05-06 17:42 35.76592 -85.01988 15754 ft 380 kts 80°
2026-05-06 17:42 35.77006 -84.98791 15515 ft 376 kts 80°
2026-05-06 17:42 35.77415 -84.95627 15242 ft 372 kts 80°
2026-05-06 17:42 35.77819 -84.92505 15016 ft 367 kts 80°
2026-05-06 17:43 35.78217 -84.89408 14779 ft 366 kts 80°
2026-05-06 17:43 35.78612 -84.86316 14557 ft 366 kts 80°
2026-05-06 17:43 35.79008 -84.83223 14324 ft 365 kts 80°
2026-05-06 17:43 35.79402 -84.80136 14106 ft 365 kts 80°
2026-05-06 17:44 35.79796 -84.77049 13881 ft 364 kts 80°
2026-05-06 17:44 35.80187 -84.73980 13623 ft 361 kts 80°
2026-05-06 17:44 35.80573 -84.70941 13370 ft 357 kts 81°
2026-05-06 17:44 35.80954 -84.67933 13102 ft 353 kts 81°
2026-05-06 17:45 35.81330 -84.64963 12849 ft 349 kts 80°
2026-05-06 17:45 35.81821 -84.62060 12579 ft 344 kts 74°
2026-05-06 17:45 35.82446 -84.59234 12353 ft 340 kts 72°
2026-05-06 17:45 35.83106 -84.56442 12089 ft 337 kts 72°
2026-05-06 17:46 35.83763 -84.53681 11846 ft 335 kts 72°
2026-05-06 17:46 35.84409 -84.50933 11601 ft 333 kts 72°
2026-05-06 17:46 35.85043 -84.48200 11351 ft 331 kts 73°
2026-05-06 17:46 35.85659 -84.45513 11113 ft 329 kts 73°
2026-05-06 17:47 35.86285 -84.42762 10865 ft 328 kts 73°
2026-05-06 17:47 35.86887 -84.40097 10636 ft 327 kts 73°
2026-05-06 17:47 35.87495 -84.37401 10393 ft 325 kts 73°
2026-05-06 17:47 35.88097 -84.34718 10159 ft 324 kts 73°
2026-05-06 17:48 35.88698 -84.32042 9922 ft 324 kts 74°
2026-05-06 17:48 35.89293 -84.29381 9669 ft 321 kts 74°
2026-05-06 17:48 35.89883 -84.26744 9410 ft 316 kts 74°
2026-05-06 17:48 35.90452 -84.24193 9349 ft 300 kts 73°
2026-05-06 17:49 35.90993 -84.21769 9235 ft 285 kts 73°
2026-05-06 17:49 35.91503 -84.19478 9151 ft 269 kts 74°
2026-05-06 17:49 35.91985 -84.17311 9046 ft 253 kts 74°
2026-05-06 17:49 35.92436 -84.15284 8934 ft 238 kts 74°
2026-05-06 17:50 35.92861 -84.13368 8751 ft 228 kts 73°
2026-05-06 17:50 35.93279 -84.11492 8437 ft 225 kts 74°
2026-05-06 17:50 35.93690 -84.09638 8145 ft 222 kts 74°
2026-05-06 17:50 35.94097 -84.07805 7829 ft 221 kts 74°
2026-05-06 17:51 35.94502 -84.05980 7514 ft 220 kts 74°
2026-05-06 17:51 35.94903 -84.04169 7245 ft 217 kts 74°
2026-05-06 17:51 35.95298 -84.02381 7038 ft 216 kts 74°
2026-05-06 17:51 35.95697 -84.00580 6845 ft 218 kts 74°
2026-05-06 17:52 35.96095 -83.98776 6637 ft 217 kts 75°
2026-05-06 17:52 35.96357 -83.97588 6500 ft 217 kts 75°
2026-05-06 17:52 35.96885 -83.95195 6206 ft 215 kts 75°
2026-05-06 17:52 35.97144 -83.94021 6070 ft 213 kts 75°
2026-05-06 17:53 35.97532 -83.92261 5838 ft 212 kts 75°
2026-05-06 17:53 35.97917 -83.90512 5618 ft 210 kts 75°
2026-05-06 17:53 35.98299 -83.88776 5423 ft 209 kts 75°
2026-05-06 17:53 35.98678 -83.87051 5243 ft 207 kts 75°
2026-05-06 17:54 35.99051 -83.85354 5135 ft 204 kts 75°
2026-05-06 17:54 35.99414 -83.83652 5066 ft 206 kts 81°
2026-05-06 17:54 35.99253 -83.81939 4961 ft 200 kts 123°
2026-05-06 17:54 35.98330 -83.80791 4905 ft 183 kts 159°
2026-05-06 17:55 35.97298 -83.79851 4710 ft 190 kts 141°
2026-05-06 17:55 35.96227 -83.79030 4448 ft 177 kts 173°
2026-05-06 17:55 35.95065 -83.78593 4338 ft 168 kts 180°
2026-05-06 17:55 35.94064 -83.79018 4322 ft 153 kts 233°
2026-05-06 17:56 35.93559 -83.80172 4364 ft 156 kts 243°
2026-05-06 17:56 35.93013 -83.81361 4311 ft 164 kts 240°
2026-05-06 17:56 35.92414 -83.82582 4115 ft 166 kts 238°
2026-05-06 17:56 35.91808 -83.83762 3898 ft 159 kts 237°
2026-05-06 17:57 35.91220 -83.84878 3710 ft 152 kts 237°
2026-05-06 17:57 35.90635 -83.85971 3539 ft 154 kts 236°
2026-05-06 17:57 35.90033 -83.87084 3372 ft 157 kts 236°
2026-05-06 17:57 35.89422 -83.88210 3165 ft 158 kts 236°
2026-05-06 17:58 35.88813 -83.89326 2948 ft 156 kts 235°
2026-05-06 17:58 35.88204 -83.90414 2739 ft 154 kts 230°
2026-05-06 17:58 35.87465 -83.91348 2562 ft 153 kts 226°
2026-05-06 17:58 35.86712 -83.92251 2369 ft 147 kts 226°
2026-05-06 17:59 35.86009 -83.93086 2207 ft 137 kts 225°
2026-05-06 17:59 35.85328 -83.93891 2002 ft 134 kts 224°
2026-05-06 17:59 35.84682 -83.94676 1830 ft 131 kts 227°
2026-05-06 17:59 35.84034 -83.95470 1676 ft 131 kts 224°
2026-05-06 18:00 35.83388 -83.96258 1516 ft 128 kts 226°
2026-05-06 18:00 35.82736 -83.97049 1272 ft 135 kts 226°
2026-05-06 18:00 35.82097 -83.97861 1146 ft 130 kts 224°
2026-05-06 18:00 35.81455 -83.98640 986 ft 126 kts 224°
2026-05-06 18:01 35.80904 -83.99312 958 ft 93 kts 225°
2026-05-06 18:01 35.80553 -83.99740 953 ft 49 kts 224°
2026-05-06 18:01 35.80352 -83.99979 953 ft 37 kts 225°
2026-05-06 18:01 35.80209 -84.00155 950 ft 24 kts 224°
2026-05-06 18:02 35.80106 -84.00280 948 ft 16 kts 218°
2026-05-06 18:02 35.80017 -84.00263 948 ft 15 kts 113°
2026-05-06 18:02 35.80053 -84.00163 949 ft 12 kts 49°
2026-05-06 18:02 35.80110 -84.00092 951 ft 11 kts 43°
2026-05-06 18:03 35.80166 -84.00025 951 ft 11 kts 45°
2026-05-06 18:03 35.80220 -83.99958 951 ft 11 kts 44°
2026-05-06 18:03 35.80273 -83.99893 953 ft 11 kts 45°
2026-05-06 18:03 35.80324 -83.99830 953 ft 10 kts 45°
2026-05-06 18:04 35.80404 -83.99732 952 ft 22 kts 44°
2026-05-06 18:04 35.80518 -83.99612 956 ft 21 kts 46°
2026-05-06 18:04 35.80619 -83.99488 954 ft 11 kts 47°
2026-05-06 18:04 35.80623 -83.99413 956 ft 9 kts 112°
2026-05-06 18:05 35.80599 -83.99343 956 ft 9 kts 106°
2026-05-06 18:05 35.80599 -83.99269 957 ft 9 kts 88°
2026-05-06 18:05 35.80599 -83.99238 956 ft 1 kts 88°
2026-05-06 18:05 35.80600 -83.99234 956 ft 0 kts 88°